Time,TemperatureF,DewpointF,PressureIn,WindDirection,WindDirectionDegrees,WindSpeedMPH,WindSpeedGustMPH,Humidity,HourlyPrecipIn,Conditions,Clouds,dailyrainin,SoftwareType,DateUTC
2013-09-30 00:00:00,75.5,67.8,29.61,WNW,292,0.0,0.0,77,0.00,,---,0.00,VWS V13.01,2013-09-30 04:00:00,
2013-09-30 00:01:00,75.5,67.8,29.61,WNW,292,0.0,0.0,77,0.00,,---,0.00,VWS V13.01,2013-09-30 04:01:00,
2013-09-30 00:02:00,75.5,67.8,29.61,WNW,292,0.0,0.0,77,0.00,,---,0.00,VWS V13.01,2013-09-30 04:02:00,
2013-09-30 00:03:00,75.5,68.2,29.61,WNW,292,0.0,0.0,78,0.00,,---,0.00,VWS V13.01,2013-09-30 04:03:00,
2013-09-30 00:07:00,75.3,68.0,29.61,WNW,292,0.0,0.0,78,0.00,,---,0.00,VWS V13.01,2013-09-30 04:07:00,
2013-09-30 00:09:00,75.3,68.0,29.61,WNW,292,0.0,0.0,78,0.00,,---,0.00,VWS V13.01,2013-09-30 04:09:00,
2013-09-30 00:14:00,75.3,68.0,29.61,WNW,292,0.0,0.0,78,0.00,,---,0.00,VWS V13.01,2013-09-30 04:14:00,
2013-09-30 00:19:00,75.0,67.7,29.61,WNW,292,0.0,0.0,78,0.00,,---,0.00,VWS V13.01,2013-09-30 04:19:00,
2013-09-30 00:24:00,75.0,67.7,29.61,WNW,292,0.0,0.0,78,0.00,,---,0.00,VWS V13.01,2013-09-30 04:24:00,
2013-09-30 00:29:00,74.8,67.9,29.60,WNW,292,0.0,0.0,79,0.00,,---,0.00,VWS V13.01,2013-09-30 04:29:00,
2013-09-30 00:34:00,74.8,67.9,29.61,WNW,292,0.0,0.0,79,0.00,,---,0.00,VWS V13.01,2013-09-30 04:34:00,
2013-09-30 00:39:00,74.8,67.9,29.61,WNW,292,0.0,0.0,79,0.00,,---,0.00,VWS V13.01,2013-09-30 04:39:00,
2013-09-30 00:44:00,74.8,67.9,29.60,WNW,292,0.0,0.0,79,0.00,,---,0.00,VWS V13.01,2013-09-30 04:44:00,
2013-09-30 00:49:00,74.6,68.0,29.60,WNW,292,0.0,0.0,80,0.00,,---,0.00,VWS V13.01,2013-09-30 04:49:00,
2013-09-30 00:54:00,74.6,68.0,29.60,WNW,292,0.0,0.0,80,0.00,,---,0.00,VWS V13.01,2013-09-30 04:54:00,
2013-09-30 00:59:00,74.4,67.8,29.60,WNW,292,0.0,0.0,80,0.00,,---,0.00,VWS V13.01,2013-09-30 04:59:00,
2013-09-30 01:04:00,74.4,67.8,29.60,WNW,292,0.0,0.0,80,0.00,,---,0.00,VWS V13.01,2013-09-30 05:04:00,
2013-09-30 01:09:00,74.4,67.8,29.60,WNW,292,0.0,0.0,80,0.00,,---,0.00,VWS V13.01,2013-09-30 05:09:00,
2013-09-30 01:14:00,74.3,67.7,29.60,WNW,292,0.0,0.0,80,0.00,,---,0.00,VWS V13.01,2013-09-30 05:14:00,
2013-09-30 01:19:00,74.3,68.1,29.60,WNW,292,0.0,0.0,81,0.00,,---,0.00,VWS V13.01,2013-09-30 05:19:00,
2013-09-30 01:24:00,74.3,68.1,29.60,WNW,292,0.0,0.0,81,0.00,,---,0.00,VWS V13.01,2013-09-30 05:24:00,
2013-09-30 01:29:00,74.1,67.9,29.59,WNW,292,0.0,0.0,81,0.00,,---,0.00,VWS V13.01,2013-09-30 05:29:00,
2013-09-30 01:34:00,74.1,67.5,29.59,WNW,292,0.0,0.0,80,0.00,,---,0.00,VWS V13.01,2013-09-30 05:34:00,
2013-09-30 01:40:00,74.1,67.5,29.59,WNW,292,0.0,0.0,80,0.00,,---,0.00,VWS V13.01,2013-09-30 05:40:00,
2013-09-30 01:45:00,74.1,67.5,29.59,WNW,292,0.0,0.0,80,0.00,,---,0.00,VWS V13.01,2013-09-30 05:45:00,
2013-09-30 01:50:00,74.1,67.9,29.59,WNW,292,0.0,0.0,81,0.00,,---,0.00,VWS V13.01,2013-09-30 05:50:00,
2013-09-30 01:55:00,73.9,67.7,29.59,WNW,292,0.0,0.0,81,0.00,,---,0.00,VWS V13.01,2013-09-30 05:55:00,
2013-09-30 02:00:00,73.9,67.7,29.59,WNW,292,0.0,0.0,81,0.00,,---,0.00,VWS V13.01,2013-09-30 06:00:00,
2013-09-30 02:05:00,73.9,67.7,29.59,WNW,292,0.0,0.0,81,0.00,,---,0.00,VWS V13.01,2013-09-30 06:05:00,
2013-09-30 02:10:00,73.9,67.7,29.59,WNW,292,0.0,0.0,81,0.00,,---,0.00,VWS V13.01,2013-09-30 06:10:00,
2013-09-30 02:15:00,73.7,67.9,29.59,WNW,292,0.0,0.0,82,0.00,,---,0.00,VWS V13.01,2013-09-30 06:15:00,
2013-09-30 02:20:00,73.7,67.9,29.58,WNW,292,0.0,0.0,82,0.00,,---,0.00,VWS V13.01,2013-09-30 06:20:00,
2013-09-30 02:25:00,73.5,67.7,29.58,WNW,292,0.0,0.0,82,0.00,,---,0.00,VWS V13.01,2013-09-30 06:25:00,
2013-09-30 02:30:00,73.5,67.7,29.58,WNW,292,0.0,0.0,82,0.00,,---,0.00,VWS V13.01,2013-09-30 06:30:00,
2013-09-30 02:35:00,73.5,67.7,29.59,WNW,292,0.0,0.0,82,0.00,,---,0.00,VWS V13.01,2013-09-30 06:35:00,
2013-09-30 02:40:00,73.2,67.4,29.58,WNW,292,0.0,0.0,82,0.00,,---,0.00,VWS V13.01,2013-09-30 06:40:00,
2013-09-30 02:45:00,73.2,67.4,29.59,WNW,292,0.0,0.0,82,0.00,,---,0.00,VWS V13.01,2013-09-30 06:45:00,
2013-09-30 02:50:00,73.2,67.4,29.58,WNW,292,0.0,0.0,82,0.00,,---,0.00,VWS V13.01,2013-09-30 06:50:00,
2013-09-30 02:55:00,73.2,67.4,29.59,WNW,292,0.0,0.0,82,0.00,,---,0.00,VWS V13.01,2013-09-30 06:55:00,
2013-09-30 03:00:00,73.2,67.4,29.58,WNW,292,0.0,0.0,82,0.00,,---,0.00,VWS V13.01,2013-09-30 07:00:00,
2013-09-30 03:05:00,73.2,67.4,29.58,WNW,292,0.0,0.0,82,0.00,,---,0.00,VWS V13.01,2013-09-30 07:05:00,
2013-09-30 03:10:00,73.0,67.2,29.58,WNW,292,0.0,0.0,82,0.00,,---,0.00,VWS V13.01,2013-09-30 07:10:00,
2013-09-30 03:15:00,73.0,67.2,29.58,WNW,292,0.0,0.0,82,0.00,,---,0.00,VWS V13.01,2013-09-30 07:15:00,
2013-09-30 03:20:00,72.8,67.0,29.58,WNW,292,0.0,0.0,82,0.00,,---,0.00,VWS V13.01,2013-09-30 07:20:00,
2013-09-30 03:25:00,72.8,67.3,29.58,WNW,292,0.0,0.0,83,0.00,,---,0.00,VWS V13.01,2013-09-30 07:25:00,
2013-09-30 03:30:00,72.8,67.3,29.58,WNW,292,0.0,0.0,83,0.00,,---,0.00,VWS V13.01,2013-09-30 07:30:00,
2013-09-30 03:35:00,72.8,67.3,29.58,WNW,292,0.0,0.0,83,0.00,,---,0.00,VWS V13.01,2013-09-30 07:35:00,
2013-09-30 03:40:00,72.8,67.3,29.57,WNW,292,0.0,0.0,83,0.00,,---,0.00,VWS V13.01,2013-09-30 07:40:00,
2013-09-30 03:45:00,72.8,67.3,29.57,WNW,292,0.0,0.0,83,0.00,,---,0.00,VWS V13.01,2013-09-30 07:45:00,
2013-09-30 03:50:00,72.8,67.3,29.57,WNW,292,0.0,0.0,83,0.00,,---,0.00,VWS V13.01,2013-09-30 07:50:00,
2013-09-30 03:55:00,72.8,67.3,29.57,WNW,292,0.0,0.0,83,0.00,,---,0.00,VWS V13.01,2013-09-30 07:55:00,
2013-09-30 04:00:00,72.6,67.2,29.57,WNW,292,0.0,0.0,83,0.00,,---,0.00,VWS V13.01,2013-09-30 08:00:00,
2013-09-30 04:05:00,72.6,67.2,29.57,WNW,292,0.0,0.0,83,0.00,,---,0.00,VWS V13.01,2013-09-30 08:05:00,
2013-09-30 04:10:00,72.6,67.5,29.56,WNW,292,0.0,0.0,84,0.00,,---,0.00,VWS V13.01,2013-09-30 08:10:00,
2013-09-30 04:15:00,72.5,67.4,29.57,WNW,292,0.0,0.0,84,0.00,,---,0.00,VWS V13.01,2013-09-30 08:15:00,
2013-09-30 04:20:00,72.5,67.4,29.57,WNW,292,0.0,0.0,84,0.00,,---,0.00,VWS V13.01,2013-09-30 08:20:00,
2013-09-30 04:25:00,72.5,67.4,29.57,WNW,292,0.0,0.0,84,0.00,,---,0.00,VWS V13.01,2013-09-30 08:25:00,
2013-09-30 04:30:00,72.5,67.4,29.58,WNW,292,0.0,0.0,84,0.00,,---,0.00,VWS V13.01,2013-09-30 08:30:00,
2013-09-30 04:35:00,72.3,67.2,29.57,WNW,292,0.0,0.0,84,0.00,,---,0.00,VWS V13.01,2013-09-30 08:35:00,
2013-09-30 04:40:00,72.3,67.2,29.57,WNW,292,0.0,0.0,84,0.00,,---,0.00,VWS V13.01,2013-09-30 08:40:00,
2013-09-30 04:45:00,72.3,67.2,29.57,WNW,292,0.0,0.0,84,0.00,,---,0.00,VWS V13.01,2013-09-30 08:45:00,
2013-09-30 04:50:00,72.3,67.2,29.57,WNW,292,0.0,0.0,84,0.00,,---,0.00,VWS V13.01,2013-09-30 08:50:00,
2013-09-30 04:55:00,72.1,67.0,29.58,WNW,292,0.0,0.0,84,0.00,,---,0.00,VWS V13.01,2013-09-30 08:55:00,
2013-09-30 05:00:00,72.1,67.0,29.58,WNW,292,0.0,0.0,84,0.00,,---,0.00,VWS V13.01,2013-09-30 09:00:00,
2013-09-30 05:05:00,72.1,67.0,29.58,WNW,292,0.0,0.0,84,0.00,,---,0.00,VWS V13.01,2013-09-30 09:05:00,
2013-09-30 05:10:00,72.3,67.2,29.58,WNW,292,0.0,0.0,84,0.00,,---,0.00,VWS V13.01,2013-09-30 09:10:00,
2013-09-30 05:15:00,72.1,67.0,29.58,WNW,292,0.0,0.0,84,0.00,,---,0.00,VWS V13.01,2013-09-30 09:15:00,
2013-09-30 05:20:00,72.3,67.2,29.58,WNW,292,0.0,0.0,84,0.00,,---,0.00,VWS V13.01,2013-09-30 09:20:00,
2013-09-30 05:25:00,72.3,67.2,29.58,WNW,292,0.0,0.0,84,0.00,,---,0.00,VWS V13.01,2013-09-30 09:25:00,
2013-09-30 05:30:00,72.3,67.2,29.58,WNW,292,0.0,0.0,84,0.00,,---,0.00,VWS V13.01,2013-09-30 09:30:00,
2013-09-30 05:35:00,72.1,67.0,29.58,WNW,292,0.0,0.0,84,0.00,,---,0.00,VWS V13.01,2013-09-30 09:35:00,
2013-09-30 05:40:00,72.1,67.3,29.58,WNW,292,0.0,0.0,85,0.00,,---,0.00,VWS V13.01,2013-09-30 09:40:00,
2013-09-30 05:45:00,72.1,67.3,29.58,WNW,292,0.0,0.0,85,0.00,,---,0.00,VWS V13.01,2013-09-30 09:45:00,
2013-09-30 05:50:00,72.1,67.3,29.58,WNW,292,0.0,0.0,85,0.00,,---,0.00,VWS V13.01,2013-09-30 09:50:00,
2013-09-30 05:55:00,72.1,67.3,29.58,WNW,292,0.0,0.0,85,0.00,,---,0.00,VWS V13.01,2013-09-30 09:55:00,
2013-09-30 06:00:00,72.1,67.3,29.58,WNW,292,0.0,0.0,85,0.00,,---,0.00,VWS V13.01,2013-09-30 10:00:00,
2013-09-30 06:05:00,72.1,67.3,29.59,WNW,292,0.0,0.0,85,0.00,,---,0.00,VWS V13.01,2013-09-30 10:05:00,
2013-09-30 06:10:00,71.9,67.2,29.59,WNW,292,0.0,0.0,85,0.00,,---,0.00,VWS V13.01,2013-09-30 10:10:00,
2013-09-30 06:15:00,71.7,66.9,29.59,WNW,292,0.0,0.0,85,0.00,,---,0.00,VWS V13.01,2013-09-30 10:15:00,
2013-09-30 06:20:00,71.7,66.9,29.59,WNW,292,0.0,0.0,85,0.00,,---,0.00,VWS V13.01,2013-09-30 10:20:00,
2013-09-30 06:25:00,71.7,66.9,29.59,WNW,292,0.0,0.0,85,0.00,,---,0.00,VWS V13.01,2013-09-30 10:25:00,
2013-09-30 06:30:00,71.7,66.9,29.59,WNW,292,0.0,0.0,85,0.00,,---,0.00,VWS V13.01,2013-09-30 10:30:00,
2013-09-30 06:35:00,71.6,66.9,29.59,WNW,292,0.0,0.0,85,0.00,,---,0.00,VWS V13.01,2013-09-30 10:35:00,
2013-09-30 06:40:00,71.7,66.9,29.60,WNW,292,0.0,0.0,85,0.00,,---,0.00,VWS V13.01,2013-09-30 10:40:00,
2013-09-30 06:45:00,71.6,66.9,29.60,WNW,292,0.0,0.0,85,0.00,,---,0.00,VWS V13.01,2013-09-30 10:45:00,
2013-09-30 06:50:00,71.4,66.7,29.60,WNW,292,0.0,0.0,85,0.00,,---,0.00,VWS V13.01,2013-09-30 10:50:00,
2013-09-30 06:55:00,71.4,66.7,29.60,WNW,292,0.0,0.0,85,0.00,,---,0.00,VWS V13.01,2013-09-30 10:55:00,
2013-09-30 07:00:00,71.4,66.7,29.60,WNW,292,0.0,0.0,85,0.00,,---,0.00,VWS V13.01,2013-09-30 11:00:00,
2013-09-30 07:05:00,71.4,67.0,29.60,WNW,292,0.0,0.0,86,0.00,,---,0.00,VWS V13.01,2013-09-30 11:05:00,
2013-09-30 07:10:00,71.4,67.0,29.60,WNW,292,0.0,0.0,86,0.00,,---,0.00,VWS V13.01,2013-09-30 11:10:00,
2013-09-30 07:15:00,71.4,67.0,29.60,WNW,292,0.0,0.0,86,0.00,,---,0.00,VWS V13.01,2013-09-30 11:15:00,
2013-09-30 07:20:00,71.4,67.0,29.60,WNW,292,0.0,0.0,86,0.00,,---,0.00,VWS V13.01,2013-09-30 11:20:00,
2013-09-30 07:25:00,71.4,67.0,29.60,WNW,292,0.0,0.0,86,0.00,,---,0.00,VWS V13.01,2013-09-30 11:25:00,
2013-09-30 07:30:00,71.4,67.0,29.61,WNW,292,0.0,0.0,86,0.00,,---,0.00,VWS V13.01,2013-09-30 11:30:00,
2013-09-30 07:35:00,71.4,67.0,29.61,WNW,292,0.0,0.0,86,0.00,,---,0.00,VWS V13.01,2013-09-30 11:35:00,
2013-09-30 07:40:00,71.4,67.0,29.61,WNW,292,0.0,0.0,86,0.00,,---,0.00,VWS V13.01,2013-09-30 11:40:00,
2013-09-30 07:45:00,71.2,66.8,29.61,WNW,292,0.0,0.0,86,0.00,,---,0.00,VWS V13.01,2013-09-30 11:45:00,
2013-09-30 07:50:00,71.2,66.8,29.61,WNW,292,0.0,0.0,86,0.00,,---,0.00,VWS V13.01,2013-09-30 11:50:00,
2013-09-30 07:55:00,71.4,67.0,29.61,WNW,292,0.0,0.0,86,0.00,,---,0.00,VWS V13.01,2013-09-30 11:55:00,
2013-09-30 08:00:00,71.4,67.0,29.62,WNW,292,0.0,0.0,86,0.00,,---,0.00,VWS V13.01,2013-09-30 12:00:00,
2013-09-30 08:05:00,71.4,67.0,29.62,WNW,292,0.0,0.0,86,0.00,,---,0.00,VWS V13.01,2013-09-30 12:05:00,
2013-09-30 08:10:00,71.4,67.0,29.61,WNW,292,0.0,0.0,86,0.00,,---,0.00,VWS V13.01,2013-09-30 12:10:00,
2013-09-30 08:15:00,71.7,67.3,29.62,WNW,292,0.0,0.0,86,0.00,,---,0.00,VWS V13.01,2013-09-30 12:15:00,
2013-09-30 08:20:00,71.9,67.5,29.62,WNW,292,0.0,0.0,86,0.00,,---,0.00,VWS V13.01,2013-09-30 12:20:00,
2013-09-30 08:25:00,71.9,67.5,29.62,WNW,292,0.0,0.0,86,0.00,,---,0.00,VWS V13.01,2013-09-30 12:25:00,
2013-09-30 08:30:00,71.9,67.5,29.63,WNW,292,0.0,0.0,86,0.00,,---,0.00,VWS V13.01,2013-09-30 12:30:00,
2013-09-30 08:35:00,71.9,67.5,29.62,WNW,292,0.0,0.0,86,0.00,,---,0.00,VWS V13.01,2013-09-30 12:35:00,
2013-09-30 08:40:00,73.2,69.1,29.63,WNW,292,0.0,0.0,87,0.00,,---,0.00,VWS V13.01,2013-09-30 12:40:00,
2013-09-30 08:45:00,73.5,69.4,29.63,WNW,292,0.0,0.0,87,0.00,,---,0.00,VWS V13.01,2013-09-30 12:45:00,
2013-09-30 08:50:00,73.9,69.8,29.63,WNW,292,0.0,0.0,87,0.00,,---,0.00,VWS V13.01,2013-09-30 12:50:00,
2013-09-30 08:55:00,74.1,70.0,29.63,WNW,292,0.0,0.0,87,0.00,,---,0.00,VWS V13.01,2013-09-30 12:55:00,
2013-09-30 09:00:00,74.4,70.3,29.63,WNW,292,0.0,0.0,87,0.00,,---,0.00,VWS V13.01,2013-09-30 13:00:00,
2013-09-30 09:05:00,74.8,70.7,29.64,WNW,292,0.0,0.0,87,0.00,,---,0.00,VWS V13.01,2013-09-30 13:05:00,
2013-09-30 09:10:00,75.0,70.9,29.64,WNW,292,0.0,0.0,87,0.00,,---,0.00,VWS V13.01,2013-09-30 13:10:00,
2013-09-30 09:15:00,75.3,71.2,29.64,WNW,292,0.0,0.0,87,0.00,,---,0.00,VWS V13.01,2013-09-30 13:15:00,
2013-09-30 09:20:00,75.9,71.8,29.64,WNW,292,0.0,0.0,87,0.00,,---,0.00,VWS V13.01,2013-09-30 13:20:00,
2013-09-30 09:25:00,75.9,71.8,29.64,WNW,292,0.0,0.0,87,0.00,,---,0.00,VWS V13.01,2013-09-30 13:25:00,
2013-09-30 09:30:00,75.9,71.8,29.64,WNW,292,0.0,0.0,87,0.00,,---,0.00,VWS V13.01,2013-09-30 13:30:00,
2013-09-30 09:35:00,75.9,71.8,29.64,WNW,292,0.0,0.0,87,0.00,,---,0.00,VWS V13.01,2013-09-30 13:35:00,
2013-09-30 09:40:00,75.9,71.8,29.64,WNW,292,0.0,0.0,87,0.00,,---,0.00,VWS V13.01,2013-09-30 13:40:00,
2013-09-30 09:45:00,77.1,72.9,29.64,WNW,292,0.0,0.0,87,0.00,,---,0.00,VWS V13.01,2013-09-30 13:45:00,
2013-09-30 09:50:00,77.5,73.0,29.64,WNW,292,0.0,0.0,86,0.00,,---,0.00,VWS V13.01,2013-09-30 13:50:00,
2013-09-30 09:55:00,77.7,73.2,29.64,WNW,292,0.0,0.0,86,0.00,,---,0.00,VWS V13.01,2013-09-30 13:55:00,
2013-09-30 10:00:00,77.9,73.4,29.64,WNW,292,0.0,0.0,86,0.00,,---,0.00,VWS V13.01,2013-09-30 14:00:00,
2013-09-30 10:05:00,78.4,73.5,29.64,WNW,292,0.0,0.0,85,0.00,,---,0.00,VWS V13.01,2013-09-30 14:05:00,
2013-09-30 10:10:00,78.4,73.5,29.64,WNW,292,0.0,0.0,85,0.00,,---,0.00,VWS V13.01,2013-09-30 14:10:00,
2013-09-30 10:15:00,78.9,73.7,29.64,WNW,292,0.0,0.0,84,0.00,,---,0.00,VWS V13.01,2013-09-30 14:15:00,
2013-09-30 10:20:00,79.5,73.9,29.65,West,270,0.0,0.0,83,0.00,,---,0.00,VWS V13.01,2013-09-30 14:20:00,
2013-09-30 10:25:00,79.5,73.5,29.65,West,270,0.0,0.0,82,0.00,,---,0.00,VWS V13.01,2013-09-30 14:25:00,
2013-09-30 10:30:00,80.2,73.8,29.64,West,270,0.0,0.0,81,0.00,,---,0.00,VWS V13.01,2013-09-30 14:30:00,
2013-09-30 10:35:00,80.2,73.8,29.64,West,270,0.0,0.0,81,0.00,,---,0.00,VWS V13.01,2013-09-30 14:35:00,
2013-09-30 10:40:00,80.7,73.6,29.64,West,270,0.0,0.0,79,0.00,,---,0.00,VWS V13.01,2013-09-30 14:40:00,
2013-09-30 10:45:00,80.7,73.6,29.64,West,270,0.0,0.0,79,0.00,,---,0.00,VWS V13.01,2013-09-30 14:45:00,
2013-09-30 10:50:00,81.3,73.4,29.64,West,270,0.0,0.0,77,0.00,,---,0.00,VWS V13.01,2013-09-30 14:50:00,
2013-09-30 10:55:00,81.5,73.6,29.64,West,270,0.0,0.0,77,0.00,,---,0.00,VWS V13.01,2013-09-30 14:55:00,
2013-09-30 11:00:00,82.0,74.1,29.64,West,270,0.0,0.0,77,0.00,,---,0.00,VWS V13.01,2013-09-30 15:00:00,
2013-09-30 11:05:00,82.2,74.3,29.64,West,270,0.0,0.0,77,0.00,,---,0.00,VWS V13.01,2013-09-30 15:05:00,
2013-09-30 11:10:00,82.2,74.3,29.64,West,270,0.0,0.0,77,0.00,,---,0.00,VWS V13.01,2013-09-30 15:10:00,
2013-09-30 11:15:00,83.1,74.4,29.64,West,270,0.0,0.0,75,0.00,,---,0.00,VWS V13.01,2013-09-30 15:15:00,
2013-09-30 11:20:00,83.6,74.4,29.64,West,270,0.0,0.0,74,0.00,,---,0.00,VWS V13.01,2013-09-30 15:20:00,
2013-09-30 11:25:00,83.8,74.6,29.64,West,270,0.0,0.0,74,0.00,,---,0.00,VWS V13.01,2013-09-30 15:25:00,
2013-09-30 11:30:00,83.8,74.6,29.64,West,270,0.0,0.0,74,0.00,,---,0.00,VWS V13.01,2013-09-30 15:30:00,
2013-09-30 11:35:00,83.4,73.4,29.63,West,270,0.0,0.0,72,0.00,,---,0.00,VWS V13.01,2013-09-30 15:35:00,
2013-09-30 11:40:00,83.4,73.4,29.64,West,270,0.0,0.0,72,0.00,,---,0.00,VWS V13.01,2013-09-30 15:40:00,
2013-09-30 11:45:00,83.4,73.4,29.64,West,270,0.0,0.0,72,0.00,,---,0.00,VWS V13.01,2013-09-30 15:45:00,
2013-09-30 11:50:00,83.4,73.4,29.64,West,270,0.0,0.0,72,0.00,,---,0.00,VWS V13.01,2013-09-30 15:50:00,
2013-09-30 11:55:00,84.9,74.0,29.64,West,270,0.0,0.0,70,0.00,,---,0.00,VWS V13.01,2013-09-30 15:55:00,
2013-09-30 12:00:00,85.2,74.3,29.63,West,270,0.0,0.0,70,0.00,,---,0.00,VWS V13.01,2013-09-30 16:00:00,
2013-09-30 12:05:00,85.8,74.5,29.63,West,270,0.0,0.0,69,0.00,,---,0.00,VWS V13.01,2013-09-30 16:05:00,
2013-09-30 12:10:00,86.1,74.8,29.63,West,270,0.0,0.0,69,0.00,,---,0.00,VWS V13.01,2013-09-30 16:10:00,
2013-09-30 12:15:00,86.5,75.1,29.63,West,270,0.0,0.0,69,0.00,,---,0.00,VWS V13.01,2013-09-30 16:15:00,
2013-09-30 12:20:00,86.1,74.3,29.63,West,270,0.0,0.0,68,0.00,,---,0.00,VWS V13.01,2013-09-30 16:20:00,
2013-09-30 12:25:00,85.8,73.6,29.63,West,270,0.0,0.0,67,0.00,,---,0.00,VWS V13.01,2013-09-30 16:25:00,
2013-09-30 12:30:00,85.8,73.6,29.63,West,270,0.0,0.0,67,0.00,,---,0.00,VWS V13.01,2013-09-30 16:30:00,
2013-09-30 12:35:00,86.0,73.8,29.63,West,270,0.0,0.0,67,0.00,,---,0.00,VWS V13.01,2013-09-30 16:35:00,
2013-09-30 12:40:00,86.1,73.9,29.63,West,270,0.0,0.0,67,0.00,,---,0.00,VWS V13.01,2013-09-30 16:40:00,
2013-09-30 12:45:00,86.5,74.2,29.62,West,270,0.0,0.0,67,0.00,,---,0.00,VWS V13.01,2013-09-30 16:45:00,
2013-09-30 12:50:00,86.3,73.6,29.62,West,270,0.0,0.0,66,0.00,,---,0.00,VWS V13.01,2013-09-30 16:50:00,
2013-09-30 12:55:00,86.5,74.2,29.62,West,270,0.0,0.0,67,0.00,,---,0.00,VWS V13.01,2013-09-30 16:55:00,
2013-09-30 13:00:00,86.9,74.2,29.62,West,270,0.0,0.0,66,0.00,,---,0.00,VWS V13.01,2013-09-30 17:00:00,
2013-09-30 13:05:00,87.2,74.5,29.62,West,270,0.0,0.0,66,0.00,,---,0.00,VWS V13.01,2013-09-30 17:05:00,
2013-09-30 13:10:00,87.4,74.7,29.61,West,270,0.0,0.0,66,0.00,,---,0.00,VWS V13.01,2013-09-30 17:10:00,
2013-09-30 13:15:00,87.4,74.7,29.61,West,270,0.0,0.0,66,0.00,,---,0.00,VWS V13.01,2013-09-30 17:15:00,
2013-09-30 13:20:00,87.6,74.4,29.61,West,270,0.0,0.0,65,0.00,,---,0.00,VWS V13.01,2013-09-30 17:20:00,
2013-09-30 13:25:00,87.8,74.1,29.61,West,270,0.0,0.0,64,0.00,,---,0.00,VWS V13.01,2013-09-30 17:25:00,
2013-09-30 13:30:00,87.8,74.1,29.61,West,270,0.0,0.0,64,0.00,,---,0.00,VWS V13.01,2013-09-30 17:30:00,
2013-09-30 13:35:00,87.6,73.5,29.61,West,270,0.0,0.0,63,0.00,,---,0.00,VWS V13.01,2013-09-30 17:35:00,
2013-09-30 13:40:00,87.6,73.9,29.60,West,270,0.0,0.0,64,0.00,,---,0.00,VWS V13.01,2013-09-30 17:40:00,
2013-09-30 13:45:00,87.8,74.1,29.60,West,270,0.0,0.0,64,0.00,,---,0.00,VWS V13.01,2013-09-30 17:45:00,
2013-09-30 13:50:00,88.3,74.6,29.60,West,270,0.0,0.0,64,0.00,,---,0.00,VWS V13.01,2013-09-30 17:50:00,
2013-09-30 13:55:00,88.3,74.6,29.60,West,270,0.0,0.0,64,0.00,,---,0.00,VWS V13.01,2013-09-30 17:55:00,
2013-09-30 14:00:00,88.3,74.6,29.60,West,270,0.0,0.0,64,0.00,,---,0.00,VWS V13.01,2013-09-30 18:00:00,
2013-09-30 14:05:00,88.5,74.3,29.60,West,270,0.0,0.0,63,0.00,,---,0.00,VWS V13.01,2013-09-30 18:05:00,
2013-09-30 14:10:00,88.5,74.3,29.60,West,270,0.0,0.0,63,0.00,,---,0.00,VWS V13.01,2013-09-30 18:10:00,
2013-09-30 14:15:00,88.5,74.3,29.60,West,270,0.0,0.0,63,0.00,,---,0.00,VWS V13.01,2013-09-30 18:15:00,
2013-09-30 14:20:00,88.8,74.6,29.60,West,270,0.0,0.0,63,0.00,,---,0.00,VWS V13.01,2013-09-30 18:20:00,
2013-09-30 14:25:00,88.8,74.6,29.59,West,270,0.0,0.0,63,0.00,,---,0.00,VWS V13.01,2013-09-30 18:25:00,
2013-09-30 14:30:00,89.4,75.2,29.59,West,270,0.0,0.0,63,0.00,,---,0.00,VWS V13.01,2013-09-30 18:30:00,
2013-09-30 14:36:00,89.7,75.0,29.59,West,270,0.0,0.0,62,0.00,,---,0.00,VWS V13.01,2013-09-30 18:36:00,
2013-09-30 14:41:00,89.7,75.0,29.59,West,270,0.0,0.0,62,0.00,,---,0.00,VWS V13.01,2013-09-30 18:41:00,
2013-09-30 14:46:00,89.4,74.2,29.59,West,270,0.0,0.0,61,0.00,,---,0.00,VWS V13.01,2013-09-30 18:46:00,
2013-09-30 14:51:00,89.4,74.2,29.59,West,270,0.0,0.0,61,0.00,,---,0.00,VWS V13.01,2013-09-30 18:51:00,
2013-09-30 14:56:00,89.2,74.5,29.59,West,270,0.0,0.0,62,0.00,,---,0.00,VWS V13.01,2013-09-30 18:56:00,
2013-09-30 15:01:00,89.2,74.0,29.59,West,270,0.0,0.0,61,0.00,,---,0.00,VWS V13.01,2013-09-30 19:01:00,
2013-09-30 15:06:00,89.2,74.0,29.58,West,270,0.0,0.0,61,0.00,,---,0.00,VWS V13.01,2013-09-30 19:06:00,
2013-09-30 15:11:00,89.2,74.0,29.59,West,270,0.0,0.0,61,0.00,,---,0.00,VWS V13.01,2013-09-30 19:11:00,
2013-09-30 15:16:00,89.2,74.5,29.59,West,270,0.0,0.0,62,0.00,,---,0.00,VWS V13.01,2013-09-30 19:16:00,
2013-09-30 15:21:00,89.2,74.0,29.59,West,270,0.0,0.0,61,0.00,,---,0.00,VWS V13.01,2013-09-30 19:21:00,
2013-09-30 15:26:00,88.5,73.3,29.59,West,270,0.0,0.0,61,0.00,,---,0.00,VWS V13.01,2013-09-30 19:26:00,
2013-09-30 15:31:00,88.1,73.4,29.58,West,270,0.0,0.0,62,0.00,,---,0.00,VWS V13.01,2013-09-30 19:31:00,
2013-09-30 15:36:00,87.9,73.3,29.58,West,270,0.0,0.0,62,0.00,,---,0.00,VWS V13.01,2013-09-30 19:36:00,
2013-09-30 15:41:00,87.4,73.3,29.58,West,270,0.0,0.0,63,0.00,,---,0.00,VWS V13.01,2013-09-30 19:41:00,
2013-09-30 15:46:00,87.4,73.3,29.58,West,270,0.0,0.0,63,0.00,,---,0.00,VWS V13.01,2013-09-30 19:46:00,
2013-09-30 15:51:00,87.4,73.3,29.58,West,270,0.0,0.0,63,0.00,,---,0.00,VWS V13.01,2013-09-30 19:51:00,
2013-09-30 15:56:00,87.6,73.5,29.58,WNW,292,0.0,0.0,63,0.00,,---,0.00,VWS V13.01,2013-09-30 19:56:00,
2013-09-30 16:01:00,87.6,73.5,29.58,WNW,292,0.0,0.0,63,0.00,,---,0.00,VWS V13.01,2013-09-30 20:01:00,
2013-09-30 16:06:00,87.6,73.5,29.58,WNW,292,0.0,0.0,63,0.00,,---,0.00,VWS V13.01,2013-09-30 20:06:00,
2013-09-30 16:11:00,87.6,73.5,29.58,WNW,292,0.0,0.0,63,0.00,,---,0.00,VWS V13.01,2013-09-30 20:11:00,
2013-09-30 16:16:00,87.6,73.5,29.58,WNW,292,0.0,0.0,63,0.00,,---,0.00,VWS V13.01,2013-09-30 20:16:00,
2013-09-30 16:21:00,87.6,73.5,29.58,WNW,292,0.0,0.0,63,0.00,,---,0.00,VWS V13.01,2013-09-30 20:21:00,
2013-09-30 16:26:00,87.0,72.4,29.58,WNW,292,0.0,0.0,62,0.00,,---,0.00,VWS V13.01,2013-09-30 20:26:00,
2013-09-30 16:31:00,86.7,72.6,29.58,WNW,292,0.0,0.0,63,0.00,,---,0.00,VWS V13.01,2013-09-30 20:31:00,
2013-09-30 16:36:00,86.5,72.4,29.58,WNW,292,0.0,0.0,63,0.00,,---,0.00,VWS V13.01,2013-09-30 20:36:00,
2013-09-30 16:41:00,86.5,72.4,29.58,WNW,292,0.0,0.0,63,0.00,,---,0.00,VWS V13.01,2013-09-30 20:41:00,
2013-09-30 16:46:00,86.1,72.5,29.59,WNW,292,0.0,0.0,64,0.00,,---,0.00,VWS V13.01,2013-09-30 20:46:00,
2013-09-30 16:51:00,86.3,73.2,29.58,WNW,292,0.0,0.0,65,0.00,,---,0.00,VWS V13.01,2013-09-30 20:51:00,
2013-09-30 16:56:00,86.1,72.5,29.59,WNW,292,0.0,0.0,64,0.00,,---,0.00,VWS V13.01,2013-09-30 20:56:00,
2013-09-30 17:01:00,86.1,72.5,29.58,WNW,292,0.0,0.0,64,0.00,,---,0.00,VWS V13.01,2013-09-30 21:01:00,
2013-09-30 17:06:00,86.1,72.5,29.58,WNW,292,0.0,0.0,64,0.00,,---,0.00,VWS V13.01,2013-09-30 21:06:00,
2013-09-30 17:11:00,86.1,72.5,29.58,WNW,292,0.0,0.0,64,0.00,,---,0.00,VWS V13.01,2013-09-30 21:11:00,
2013-09-30 17:16:00,85.8,72.2,29.58,WNW,292,0.0,0.0,64,0.00,,---,0.00,VWS V13.01,2013-09-30 21:16:00,
2013-09-30 17:21:00,85.6,72.0,29.58,WNW,292,0.0,0.0,64,0.00,,---,0.00,VWS V13.01,2013-09-30 21:21:00,
2013-09-30 17:26:00,85.6,72.5,29.58,WNW,292,0.0,0.0,65,0.00,,---,0.00,VWS V13.01,2013-09-30 21:26:00,
2013-09-30 17:31:00,85.4,72.3,29.59,West,270,0.0,0.0,65,0.00,,---,0.00,VWS V13.01,2013-09-30 21:31:00,
2013-09-30 17:36:00,85.6,72.9,29.59,West,270,0.0,0.0,66,0.00,,---,0.00,VWS V13.01,2013-09-30 21:36:00,
2013-09-30 17:41:00,85.6,72.9,29.59,West,270,0.0,0.0,66,0.00,,---,0.00,VWS V13.01,2013-09-30 21:41:00,
2013-09-30 17:46:00,85.8,73.1,29.59,West,270,0.0,0.0,66,0.00,,---,0.00,VWS V13.01,2013-09-30 21:46:00,
2013-09-30 17:51:00,85.6,72.5,29.59,West,270,0.0,0.0,65,0.00,,---,0.00,VWS V13.01,2013-09-30 21:51:00,
2013-09-30 17:56:00,85.2,72.6,29.59,West,270,0.0,0.0,66,0.00,,---,0.00,VWS V13.01,2013-09-30 21:56:00,
2013-09-30 18:01:00,85.2,72.6,29.59,West,270,0.0,0.0,66,0.00,,---,0.00,VWS V13.01,2013-09-30 22:01:00,
2013-09-30 18:06:00,85.2,72.6,29.60,West,270,0.0,0.0,66,0.00,,---,0.00,VWS V13.01,2013-09-30 22:06:00,
2013-09-30 18:11:00,84.9,72.3,29.60,WNW,292,0.0,0.0,66,0.00,,---,0.00,VWS V13.01,2013-09-30 22:11:00,
2013-09-30 18:16:00,84.3,71.7,29.59,WNW,292,0.0,0.0,66,0.00,,---,0.00,VWS V13.01,2013-09-30 22:16:00,
2013-09-30 18:21:00,84.2,71.6,29.60,WNW,292,0.0,0.0,66,0.00,,---,0.00,VWS V13.01,2013-09-30 22:21:00,
2013-09-30 18:26:00,84.0,71.9,29.60,WNW,292,0.0,0.0,67,0.00,,---,0.00,VWS V13.01,2013-09-30 22:26:00,
2013-09-30 18:31:00,83.8,71.7,29.60,WNW,292,0.0,0.0,67,0.00,,---,0.00,VWS V13.01,2013-09-30 22:31:00,
2013-09-30 18:36:00,83.8,72.1,29.60,WNW,292,0.0,0.0,68,0.00,,---,0.00,VWS V13.01,2013-09-30 22:36:00,
2013-09-30 18:41:00,83.3,71.6,29.60,WNW,292,0.0,0.0,68,0.00,,---,0.00,VWS V13.01,2013-09-30 22:41:00,
2013-09-30 18:46:00,83.1,71.4,29.60,WNW,292,0.0,0.0,68,0.00,,---,0.00,VWS V13.01,2013-09-30 22:46:00,
2013-09-30 18:51:00,82.9,71.3,29.60,WNW,292,0.0,0.0,68,0.00,,---,0.00,VWS V13.01,2013-09-30 22:51:00,
2013-09-30 18:56:00,82.5,71.3,29.60,WNW,292,0.0,0.0,69,0.00,,---,0.00,VWS V13.01,2013-09-30 22:56:00,
2013-09-30 19:01:00,82.5,71.3,29.60,WNW,292,0.0,0.0,69,0.00,,---,0.00,VWS V13.01,2013-09-30 23:01:00,
2013-09-30 19:06:00,82.4,71.2,29.60,WNW,292,0.0,0.0,69,0.00,,---,0.00,VWS V13.01,2013-09-30 23:06:00,
2013-09-30 19:11:00,82.2,71.4,29.61,WNW,292,0.0,0.0,70,0.00,,---,0.00,VWS V13.01,2013-09-30 23:11:00,
2013-09-30 19:16:00,82.0,70.8,29.60,WNW,292,0.0,0.0,69,0.00,,---,0.00,VWS V13.01,2013-09-30 23:16:00,
2013-09-30 19:21:00,81.8,71.1,29.61,WNW,292,0.0,0.0,70,0.00,,---,0.00,VWS V13.01,2013-09-30 23:21:00,
2013-09-30 19:26:00,81.6,70.9,29.61,WNW,292,0.0,0.0,70,0.00,,---,0.00,VWS V13.01,2013-09-30 23:26:00,
2013-09-30 19:31:00,81.5,70.8,29.61,WNW,292,0.0,0.0,70,0.00,,---,0.00,VWS V13.01,2013-09-30 23:31:00,
2013-09-30 19:36:00,81.3,70.6,29.61,WNW,292,0.0,0.0,70,0.00,,---,0.00,VWS V13.01,2013-09-30 23:36:00,
2013-09-30 19:41:00,81.3,70.6,29.61,WNW,292,0.0,0.0,70,0.00,,---,0.00,VWS V13.01,2013-09-30 23:41:00,
2013-09-30 19:46:00,81.1,70.8,29.61,WNW,292,0.0,0.0,71,0.00,,---,0.00,VWS V13.01,2013-09-30 23:46:00,
2013-09-30 19:51:00,81.1,70.8,29.62,WNW,292,0.0,0.0,71,0.00,,---,0.00,VWS V13.01,2013-09-30 23:51:00,
2013-09-30 19:56:00,80.9,70.6,29.62,WNW,292,0.0,0.0,71,0.00,,---,0.00,VWS V13.01,2013-09-30 23:56:00,
2013-09-30 20:01:00,80.9,70.6,29.63,WNW,292,0.0,0.0,71,0.00,,---,0.00,VWS V13.01,2013-10-01 00:01:00,
2013-09-30 20:06:00,80.9,70.6,29.62,WNW,292,0.0,0.0,71,0.00,,---,0.00,VWS V13.01,2013-10-01 00:06:00,
2013-09-30 20:11:00,80.9,70.6,29.63,WNW,292,0.0,0.0,71,0.00,,---,0.00,VWS V13.01,2013-10-01 00:11:00,
2013-09-30 20:16:00,80.9,70.6,29.63,WNW,292,0.0,0.0,71,0.00,,---,0.00,VWS V13.01,2013-10-01 00:16:00,
2013-09-30 20:21:00,80.7,70.4,29.63,WNW,292,0.0,0.0,71,0.00,,---,0.00,VWS V13.01,2013-10-01 00:21:00,
2013-09-30 20:26:00,80.9,70.6,29.63,WNW,292,0.0,0.0,71,0.00,,---,0.00,VWS V13.01,2013-10-01 00:26:00,
2013-09-30 20:31:00,80.9,70.6,29.63,WNW,292,0.0,0.0,71,0.00,,---,0.00,VWS V13.01,2013-10-01 00:31:00,
2013-09-30 20:36:00,80.9,70.6,29.63,WNW,292,0.0,0.0,71,0.00,,---,0.00,VWS V13.01,2013-10-01 00:36:00,
2013-09-30 20:41:00,80.9,70.6,29.63,WNW,292,0.0,0.0,71,0.00,,---,0.00,VWS V13.01,2013-10-01 00:41:00,
2013-09-30 20:46:00,80.9,70.6,29.63,WNW,292,0.0,0.0,71,0.00,,---,0.00,VWS V13.01,2013-10-01 00:46:00,
2013-09-30 20:51:00,80.9,70.6,29.63,WNW,292,0.0,0.0,71,0.00,,---,0.00,VWS V13.01,2013-10-01 00:51:00,
2013-09-30 20:56:00,80.7,70.4,29.63,WNW,292,0.0,0.0,71,0.00,,---,0.00,VWS V13.01,2013-10-01 00:56:00,
2013-09-30 21:01:00,80.7,70.4,29.64,WNW,292,0.0,0.0,71,0.00,,---,0.00,VWS V13.01,2013-10-01 01:01:00,
2013-09-30 21:06:00,80.6,70.3,29.63,WNW,292,0.0,0.0,71,0.00,,---,0.00,VWS V13.01,2013-10-01 01:06:00,
2013-09-30 21:11:00,80.4,70.1,29.63,WNW,292,0.0,0.0,71,0.00,,---,0.00,VWS V13.01,2013-10-01 01:11:00,
2013-09-30 21:16:00,80.4,70.1,29.64,WNW,292,0.0,0.0,71,0.00,,---,0.00,VWS V13.01,2013-10-01 01:16:00,
2013-09-30 21:21:00,80.4,70.1,29.64,WNW,292,0.0,0.0,71,0.00,,---,0.00,VWS V13.01,2013-10-01 01:21:00,
2013-09-30 21:26:00,80.4,70.1,29.64,WNW,292,0.0,0.0,71,0.00,,---,0.00,VWS V13.01,2013-10-01 01:26:00,
2013-09-30 21:31:00,80.2,69.9,29.64,WNW,292,0.0,0.0,71,0.00,,---,0.00,VWS V13.01,2013-10-01 01:31:00,
2013-09-30 21:36:00,80.2,69.9,29.65,WNW,292,0.0,0.0,71,0.00,,---,0.00,VWS V13.01,2013-10-01 01:36:00,
2013-09-30 21:42:00,79.8,69.6,29.65,WNW,292,0.0,0.0,71,0.00,,---,0.00,VWS V13.01,2013-10-01 01:42:00,
2013-09-30 21:47:00,79.8,69.6,29.65,WNW,292,0.0,0.0,71,0.00,,---,0.00,VWS V13.01,2013-10-01 01:47:00,
2013-09-30 21:52:00,79.8,69.6,29.65,WNW,292,0.0,0.0,71,0.00,,---,0.00,VWS V13.01,2013-10-01 01:52:00,
2013-09-30 21:57:00,79.8,69.6,29.65,WNW,292,0.0,0.0,71,0.00,,---,0.00,VWS V13.01,2013-10-01 01:57:00,
2013-09-30 22:02:00,79.7,69.5,29.65,WNW,292,0.0,0.0,71,0.00,,---,0.00,VWS V13.01,2013-10-01 02:02:00,
2013-09-30 22:07:00,79.5,69.3,29.65,WNW,292,0.0,0.0,71,0.00,,---,0.00,VWS V13.01,2013-10-01 02:07:00,
2013-09-30 22:12:00,79.5,69.3,29.66,WNW,292,0.0,0.0,71,0.00,,---,0.00,VWS V13.01,2013-10-01 02:12:00,
2013-09-30 22:17:00,79.3,69.1,29.66,WNW,292,0.0,0.0,71,0.00,,---,0.00,VWS V13.01,2013-10-01 02:17:00,
2013-09-30 22:22:00,79.3,69.1,29.66,WNW,292,0.0,0.0,71,0.00,,---,0.00,VWS V13.01,2013-10-01 02:22:00,
2013-09-30 22:27:00,79.1,68.9,29.67,WNW,292,0.0,0.0,71,0.00,,---,0.00,VWS V13.01,2013-10-01 02:27:00,
2013-09-30 22:32:00,79.1,68.9,29.67,WNW,292,0.0,0.0,71,0.00,,---,0.00,VWS V13.01,2013-10-01 02:32:00,
2013-09-30 22:37:00,78.9,68.7,29.66,WNW,292,0.0,0.0,71,0.00,,---,0.00,VWS V13.01,2013-10-01 02:37:00,
2013-09-30 22:42:00,78.8,68.6,29.67,WNW,292,0.0,0.0,71,0.00,,---,0.00,VWS V13.01,2013-10-01 02:42:00,
2013-09-30 22:47:00,78.8,68.6,29.67,WNW,292,0.0,0.0,71,0.00,,---,0.00,VWS V13.01,2013-10-01 02:47:00,
2013-09-30 22:52:00,78.6,68.4,29.67,WNW,292,0.0,0.0,71,0.00,,---,0.00,VWS V13.01,2013-10-01 02:52:00,
2013-09-30 22:57:00,78.6,68.8,29.68,WNW,292,0.0,0.0,72,0.00,,---,0.00,VWS V13.01,2013-10-01 02:57:00,
2013-09-30 23:02:00,78.6,68.8,29.67,WNW,292,0.0,0.0,72,0.00,,---,0.00,VWS V13.01,2013-10-01 03:02:00,
2013-09-30 23:07:00,78.6,68.8,29.67,WNW,292,0.0,0.0,72,0.00,,---,0.00,VWS V13.01,2013-10-01 03:07:00,
2013-09-30 23:12:00,78.6,68.8,29.67,WNW,292,0.0,0.0,72,0.00,,---,0.00,VWS V13.01,2013-10-01 03:12:00,
2013-09-30 23:17:00,78.6,68.8,29.67,WNW,292,0.0,0.0,72,0.00,,---,0.00,VWS V13.01,2013-10-01 03:17:00,
2013-09-30 23:22:00,78.6,68.8,29.67,WNW,292,0.0,0.0,72,0.00,,---,0.00,VWS V13.01,2013-10-01 03:22:00,
2013-09-30 23:27:00,78.6,68.8,29.67,WNW,292,0.0,0.0,72,0.00,,---,0.00,VWS V13.01,2013-10-01 03:27:00,
2013-09-30 23:32:00,78.4,68.6,29.67,WNW,292,0.0,0.0,72,0.00,,---,0.00,VWS V13.01,2013-10-01 03:32:00,
2013-09-30 23:37:00,78.4,68.6,29.67,WNW,292,0.0,0.0,72,0.00,,---,0.00,VWS V13.01,2013-10-01 03:37:00,
2013-09-30 23:42:00,78.4,68.6,29.67,WNW,292,0.0,0.0,72,0.00,,---,0.00,VWS V13.01,2013-10-01 03:42:00,
2013-09-30 23:47:00,78.2,68.4,29.67,WNW,292,0.0,0.0,72,0.00,,---,0.00,VWS V13.01,2013-10-01 03:47:00,
2013-09-30 23:52:00,78.0,68.2,29.67,WNW,292,0.0,0.0,72,0.00,,---,0.00,VWS V13.01,2013-10-01 03:52:00,
2013-09-30 23:57:00,78.0,68.2,29.66,WNW,292,0.0,0.0,72,0.00,,---,0.00,VWS V13.01,2013-10-01 03:57:00,